Location: Unspecified
(52.4292°N, 19.3359°E)
Time: 17:44:42
(UTC+02:00)

Transit 2A Rocket - Pass Details

Date: 27 May 2024
Orbit: 583 x 910 km, 66.7° (Epoch: 22 June)

Event Time Altitude Azimuth Distance (km) Brightness Sun altitude
Rises 01:53:41 0° 149° (SSE) 3,010 - -14.5°
Exits shadow 01:55:01 - 140° (SE) 2,670 7.5 -14.4°
Reaches altitude 10° 01:58:24 10° 107° (ESE) 2,205 7.4 -14.3°
Maximum altitude 01:58:59 10° 100° (E) 2,205 7.5 -14.2°
Drops below altitude 10° 01:59:34 10° 93° (E) 2,232 7.6 -14.2°
Sets 02:04:37 0° 53° (NE) 3,278 9.3 -13.9°
